This is the latest recevied weather packets stored in our database for station/object WY1B. If no packets are shown the sender has not sent any weather packets the latest 10 day(s).
| Time | Temp. | Humidity | Pressure | Rain* | Wind** | Luminosity | Snow |
|---|---|---|---|---|---|---|---|
| 1787679450 | 41.67° C | 21% | 1006.8 hPa | 0 mm | - | 818 W/m² | - |
| 1787679146 | 41.11° C | 21% | 1006.8 hPa | 0 mm | - | 807 W/m² | - |
| 1787678847 | 40° C | 22% | 1006.7 hPa | 0 mm | - | 793 W/m² | - |
| 1787678546 | 38.89° C | 24% | 1006.7 hPa | 0 mm | - | 781 W/m² | - |
| 1787678246 | 38.33° C | 24% | 1006.7 hPa | 0 mm | - | 764 W/m² | - |
| 1787677942 | 37.78° C | 26% | 1007 hPa | 0 mm | - | 748 W/m² | - |
| 1787677636 | 37.78° C | 25% | 1006.9 hPa | 0 mm | - | 192 W/m² | - |
| 1787677336 | 37.22° C | 26% | 1006.9 hPa | 0 mm | - | 106 W/m² | - |
| 1787677035 | 36.67° C | 27% | 1007 hPa | 0 mm | - | 73 W/m² | - |
| 1787676731 | 36.67° C | 26% | 1006.9 hPa | 0 mm | - | 70 W/m² | - |
| 1787676426 | 36.67° C | 26% | 1006.9 hPa | 0 mm | - | 69 W/m² | - |
| 1787676123 | 36.11° C | 27% | 1007.1 hPa | 0 mm | - | 68 W/m² | - |
| 1787675817 | 35.56° C | 28% | 1007 hPa | 0 mm | - | 66 W/m² | - |
| 1787675514 | 35.56° C | 28% | 1006.9 hPa | 0 mm | - | 64 W/m² | - |
| 1787675212 | 35.56° C | 28% | 1006.9 hPa | 0 mm | - | 63 W/m² | - |
| 1787674907 | 35° C | 29% | 1007 hPa | 0 mm | - | 62 W/m² | - |
| 1787674602 | 35° C | 30% | 1007 hPa | 0 mm | - | 60 W/m² | - |
| 1787674297 | 35° C | 30% | 1006.9 hPa | 0 mm | - | 59 W/m² | - |
| 1787673992 | 35° C | 30% | 1007.1 hPa | 0 mm | - | 58 W/m² | - |
| 1787673687 | 35° C | 29% | 1006.9 hPa | 0 mm | - | 57 W/m² | - |
| 1787673382 | 35° C | 30% | 1006.8 hPa | 0 mm | - | 56 W/m² | - |
| 1787673081 | 35° C | 30% | 1006.8 hPa | 0 mm | - | 54 W/m² | - |
| 1787672776 | 34.44° C | 31% | 1006.8 hPa | 0 mm | - | 54 W/m² | - |
| 1787672472 | 34.44° C | 31% | 1006.7 hPa | 0 mm | - | 147 W/m² | - |
| 1787672171 | 33.89° C | 32% | 1006.9 hPa | 0 mm | - | 97 W/m² | - |
* Rain latest hour (hover to see other rain measurements)
** Current wind speed in m/s (hover to see current wind gust speed)